| time (UTC) | temp F | wind direction | speed MPH | gust MPH | rain 1hr in | rain 24hr in | rain mn in | humidity % | barometer mb |
| 20260506062415 | 56 | 66 | 1.0 | 1.0 | 0.14 | 0.30 | 0.14 | 95 | 1012.5 |
| 20260506061914 | 56 | 331 | 0.0 | 1.0 | 0.13 | 0.29 | 0.13 | 95 | 1012.9 |
| 20260506061415 | 55 | 80 | 0.0 | 1.0 | 0.12 | 0.28 | 0.12 | 95 | 1012.6 |
| 20260506060414 | 56 | 16 | 0.0 | 1.0 | 0.10 | 0.26 | 0.10 | 95 | 1012.9 |
| 20260506051414 | 55 | 70 | 0.0 | 1.0 | 0.00 | 0.16 | 0.00 | 94 | 1012.2 |
| 20260506050914 | 55 | 248 | 0.0 | 1.0 | 0.00 | 0.16 | 0.00 | 94 | 1012.3 |
| 20260506050415 | 55 | 244 | 0.0 | 1.0 | 0.00 | 0.16 | 0.00 | 94 | 1012.4 |
| 20260506044915 | 55 | 86 | 0.0 | 1.0 | 0.00 | 0.16 | 0.00 | 94 | 1012.2 |
| 20260506044415 | 55 | 247 | 0.0 | 2.0 | 0.00 | 0.16 | 0.00 | 94 | 1012.2 |
| 20260506043916 | 55 | 62 | 0.0 | 3.0 | 0.00 | 0.16 | 0.00 | 94 | 1012.2 |
| 20260506042914 | 55 | 184 | 0.0 | 3.0 | 0.00 | 0.16 | 0.00 | 95 | 1012.3 |
| 20260506042415 | 55 | 114 | 1.0 | 2.0 | 0.00 | 0.16 | 0.00 | 95 | 1012.2 |
| 20260506041914 | 55 | 126 | 1.0 | 2.0 | 0.00 | 0.16 | 0.00 | 95 | 1012.2 |
| 20260506041416 | 55 | 57 | 0.0 | 1.0 | 0.00 | 0.16 | 0.00 | 95 | 1012.2 |
| 20260506040915 | 55 | 66 | 0.0 | 2.0 | 0.00 | 0.16 | 0.00 | 95 | 1012.1 |
| 20260506040415 | 55 | 129 | 0.0 | 2.0 | 0.00 | 0.16 | 0.00 | 95 | 1012.0 |
| 20260506035914 | 55 | 111 | 1.0 | 2.0 | 0.00 | 0.16 | 0.00 | 95 | 1012.0 |
| 20260506035415 | 55 | 151 | 0.0 | 1.0 | 0.00 | 0.16 | 0.00 | 95 | 1012.1 |
| 20260506034914 | 55 | 165 | 0.0 | 1.0 | 0.00 | 0.16 | 0.00 | 95 | 1012.2 |
| 20260506034415 | 55 | 229 | 0.0 | 1.0 | 0.00 | 0.16 | 0.00 | 95 | 1012.2 |
| 20260506033914 | 55 | 229 | 0.0 | 1.0 | 0.00 | 0.16 | 0.00 | 95 | 1012.2 |
| 20260506032915 | 55 | 184 | 0.0 | 1.0 | 0.00 | 0.16 | 0.00 | 96 | 1012.2 |
| 20260506032416 | 55 | 241 | 0.0 | 1.0 | 0.00 | 0.16 | 0.00 | 96 | 1012.8 |
| 20260506031915 | 55 | 185 | 0.0 | 1.0 | 0.00 | 0.16 | 0.00 | 95 | 1012.5 |
| 20260506031414 | 55 | 76 | 0.0 | 1.0 | 0.00 | 0.16 | 0.00 | 95 | 1012.9 |
| 20260506030915 | 55 | 74 | 0.0 | 1.0 | 0.00 | 0.16 | 0.00 | 95 | 1012.9 |
| 20260506030414 | 55 | 87 | 0.0 | 1.0 | 0.00 | 0.16 | 0.00 | 95 | 1012.9 |
| 20260506025916 | 55 | 89 | 0.0 | 0.0 | 0.00 | 0.16 | 0.00 | 96 | 1012.6 |
| 20260506024940 | 55 | 80 | 0.0 | 0.0 | 0.00 | 0.16 | 0.00 | 96 | 1012.9 |
| 20260506024416 | 55 | 78 | 0.0 | 1.0 | 0.00 | 0.16 | 0.00 | 96 | 1012.9 |
| 20260506023915 | 55 | 53 | 0.0 | 1.0 | 0.00 | 0.16 | 0.00 | 96 | 1013.0 |
| 20260506023415 | 56 | 72 | 1.0 | 1.0 | 0.00 | 0.16 | 0.00 | 95 | 1013.2 |
| 20260506022915 | 55 | 144 | 0.0 | 0.0 | 0.00 | 0.16 | 0.00 | 95 | 1013.2 |
| 20260506022415 | 55 | 213 | 0.0 | 0.0 | 0.00 | 0.16 | 0.00 | 95 | 1013.1 |
| 20260506021417 | 55 | 258 | 0.0 | 1.0 | 0.00 | 0.16 | 0.00 | 95 | 1013.2 |
| 20260506020914 | 55 | 257 | 0.0 | 1.0 | 0.00 | 0.16 | 0.00 | 95 | 1012.9 |
| 20260506020414 | 55 | 248 | 0.0 | 1.0 | 0.00 | 0.16 | 0.00 | 95 | 1013.2 |
| 20260506015915 | 55 | 185 | 0.0 | 1.0 | 0.00 | 0.16 | 0.00 | 95 | 1013.0 |
| 20260506015415 | 55 | 99 | 0.0 | 1.0 | 0.00 | 0.16 | 0.00 | 95 | 1012.9 |
| 20260506014915 | 55 | 163 | 0.0 | 1.0 | 0.00 | 0.16 | 0.00 | 95 | 1013.2 |
| 20260506014415 | 55 | 180 | 0.0 | 1.0 | 0.00 | 0.16 | 0.00 | 95 | 1013.0 |
| 20260506013914 | 56 | 107 | 0.0 | 1.0 | 0.00 | 0.16 | 0.00 | 95 | 1013.1 |
| 20260506013415 | 56 | 159 | 0.0 | 1.0 | 0.00 | 0.16 | 0.00 | 95 | 1012.9 |
| 20260506012915 | 56 | 72 | 0.0 | 1.0 | 0.00 | 0.16 | 0.00 | 95 | 1013.2 |
| 20260506012414 | 56 | 146 | 0.0 | 0.0 | 0.00 | 0.16 | 0.00 | 95 | 1013.2 |
| 20260506011915 | 56 | 67 | 0.0 | 0.0 | 0.00 | 0.16 | 0.00 | 95 | 1013.0 |
| 20260506011417 | 56 | 67 | 0.0 | 1.0 | 0.00 | 0.16 | 0.00 | 95 | 1013.4 |
| 20260506010915 | 56 | 77 | 0.0 | 1.0 | 0.00 | 0.16 | 0.00 | 95 | 1013.5 |
| 20260506010414 | 56 | 114 | 0.0 | 0.0 | 0.00 | 0.16 | 0.00 | 95 | 1013.5 |
| 20260506005914 | 56 | 96 | 0.0 | 0.0 | 0.00 | 0.16 | 0.00 | 95 | 1013.5 |
| 20260506005414 | 56 | 93 | 0.0 | 1.0 | 0.00 | 0.16 | 0.00 | 95 | 1013.2 |
| 20260506004915 | 56 | 81 | 0.0 | 1.0 | 0.00 | 0.16 | 0.00 | 95 | 1013.3 |
| 20260506003914 | 56 | 245 | 0.0 | 1.0 | 0.00 | 0.16 | 0.00 | 95 | 1013.5 |
| 20260506003414 | 56 | 250 | 0.0 | 1.0 | 0.00 | 0.16 | 0.00 | 95 | 1013.5 |
| 20260506002914 | 56 | 47 | 0.0 | 1.0 | 0.00 | 0.16 | 0.00 | 95 | 1013.7 |
| 20260506002418 | 56 | 104 | 0.0 | 1.0 | 0.00 | 0.16 | 0.00 | 95 | 1013.5 |
| 20260506001915 | 56 | 92 | 0.0 | 1.0 | 0.00 | 0.16 | 0.00 | 95 | 1013.8 |
| 20260506000915 | 56 | 73 | 0.0 | 1.0 | 0.00 | 0.16 | 0.00 | 95 | 1013.6 |
| 20260506000416 | 56 | 78 | 0.0 | 1.0 | 0.00 | 0.16 | 0.00 | 95 | 1013.6 |
| 20260505235917 | 56 | 205 | 0.0 | 1.0 | 0.00 | 0.16 | 0.00 | 95 | 1013.9 |
| 20260505235415 | 56 | 245 | 0.0 | 1.0 | 0.00 | 0.16 | 0.00 | 95 | 1013.9 |
| 20260505234916 | 56 | 237 | 0.0 | 0.0 | 0.00 | 0.16 | 0.00 | 95 | 1013.7 |
| 20260505234415 | 56 | 228 | 0.0 | 0.0 | 0.00 | 0.16 | 0.00 | 95 | 1013.5 |
| 20260505233915 | 56 | 76 | 0.0 | 1.0 | 0.00 | 0.16 | 0.00 | 95 | 1013.9 |
| 20260505233414 | 56 | 76 | 0.0 | 1.0 | 0.00 | 0.16 | 0.00 | 95 | 1013.8 |
| 20260505232915 | 56 | 76 | 0.0 | 1.0 | 0.00 | 0.16 | 0.00 | 95 | 1013.9 |
| 20260505232415 | 56 | 74 | 0.0 | 1.0 | 0.00 | 0.16 | 0.00 | 95 | 1013.9 |
| 20260505231914 | 56 | 100 | 0.0 | 0.0 | 0.00 | 0.16 | 0.00 | 95 | 1014.2 |
| 20260505231415 | 56 | 100 | 0.0 | 0.0 | 0.00 | 0.16 | 0.00 | 95 | 1014.0 |
| 20260505230915 | 56 | 98 | 0.0 | 0.0 | 0.00 | 0.16 | 0.00 | 95 | 1014.1 |
| 20260505230415 | 56 | 78 | 0.0 | 0.0 | 0.00 | 0.16 | 0.00 | 95 | 1014.0 |
| 20260505225415 | 56 | 80 | 0.0 | 0.0 | 0.00 | 0.16 | 0.00 | 95 | 1014.2 |
| 20260505224915 | 56 | 80 | 0.0 | 1.0 | 0.00 | 0.16 | 0.00 | 95 | 1014.2 |
| 20260505224415 | 56 | 79 | 0.0 | 1.0 | 0.00 | 0.16 | 0.00 | 95 | 1013.9 |
| 20260505223915 | 56 | 139 | 0.0 | 1.0 | 0.00 | 0.16 | 0.00 | 95 | 1013.9 |
| 20260505223415 | 56 | 100 | 0.0 | 0.0 | 0.00 | 0.16 | 0.00 | 95 | 1014.0 |
| 20260505222915 | 56 | 67 | 0.0 | 1.0 | 0.00 | 0.16 | 0.00 | 95 | 1014.0 |
| 20260505222414 | 56 | 64 | 0.0 | 1.0 | 0.00 | 0.16 | 0.00 | 95 | 1013.9 |
| 20260505221914 | 56 | 70 | 0.0 | 0.0 | 0.00 | 0.16 | 0.00 | 95 | 1014.1 |
| 20260505221414 | 56 | 158 | 0.0 | 0.0 | 0.00 | 0.16 | 0.00 | 95 | 1014.2 |
| 20260505220916 | 56 | 75 | 0.0 | 0.0 | 0.00 | 0.16 | 0.00 | 95 | 1014.2 |
| 20260505220415 | 56 | 75 | 0.0 | 0.0 | 0.00 | 0.16 | 0.00 | 95 | 1014.2 |
| 20260505215916 | 56 | 74 | 0.0 | 0.0 | 0.00 | 0.16 | 0.16 | 95 | 1014.2 |
| 20260505215415 | 56 | 63 | 0.0 | 0.0 | 0.00 | 0.16 | 0.16 | 95 | 1014.2 |
| 20260505214915 | 56 | 61 | 0.0 | 0.0 | 0.00 | 0.16 | 0.16 | 95 | 1014.2 |
| 20260505214415 | 56 | 58 | 0.0 | 0.0 | 0.00 | 0.16 | 0.16 | 95 | 1014.2 |
| 20260505213915 | 56 | 57 | 0.0 | 0.0 | 0.00 | 0.16 | 0.16 | 95 | 1014.2 |
| 20260505212914 | 56 | 57 | 0.0 | 0.0 | 0.00 | 0.16 | 0.16 | 95 | 1014.6 |
| 20260505212414 | 56 | 53 | 0.0 | 0.0 | 0.00 | 0.16 | 0.16 | 95 | 1014.6 |
| 20260505211415 | 56 | 54 | 0.0 | 0.0 | 0.00 | 0.16 | 0.16 | 95 | 1014.6 |
| 20260505210914 | 56 | 56 | 0.0 | 0.0 | 0.00 | 0.16 | 0.16 | 95 | 1014.6 |
| 20260505210415 | 56 | 56 | 0.0 | 1.0 | 0.00 | 0.16 | 0.16 | 95 | 1014.6 |
| 20260505205415 | 56 | 51 | 0.0 | 1.0 | 0.00 | 0.16 | 0.16 | 95 | 1014.6 |
| 20260505204915 | 56 | 138 | 0.0 | 1.0 | 0.00 | 0.16 | 0.16 | 95 | 1014.6 |
| 20260505204415 | 56 | 216 | 0.0 | 1.0 | 0.00 | 0.16 | 0.16 | 95 | 1014.6 |
| 20260505203917 | 56 | 242 | 0.0 | 1.0 | 0.00 | 0.16 | 0.16 | 95 | 1014.6 |
| 20260505203415 | 56 | 237 | 0.0 | 1.0 | 0.00 | 0.16 | 0.16 | 95 | 1014.2 |
| 20260505202415 | 56 | 156 | 0.0 | 1.0 | 0.00 | 0.16 | 0.16 | 94 | 1014.6 |
| 20260505201915 | 56 | 149 | 0.0 | 0.0 | 0.00 | 0.16 | 0.16 | 94 | 1014.6 |
| 20260505201416 | 56 | 154 | 0.0 | 0.0 | 0.00 | 0.16 | 0.16 | 94 | 1014.6 |
| 20260505200916 | 56 | 97 | 0.0 | 0.0 | 0.00 | 0.16 | 0.16 | 94 | 1014.6 |
| 20260505195902 | 56 | 244 | 0.0 | 0.0 | 0.00 | 0.16 | 0.16 | 94 | 1014.6 |
| 20260505195402 | 56 | 141 | 0.0 | 1.0 | 0.00 | 0.16 | 0.16 | 94 | 1014.6 |
| 20260505194902 | 56 | 135 | 0.0 | 1.0 | 0.00 | 0.16 | 0.16 | 93 | 1014.8 |
| 20260505194404 | 56 | 212 | 0.0 | 1.0 | 0.00 | 0.16 | 0.16 | 93 | 1014.6 |
| 20260505193402 | 57 | 147 | 0.0 | 0.0 | 0.00 | 0.16 | 0.16 | 93 | 1014.6 |
| 20260505192903 | 57 | 168 | 0.0 | 0.0 | 0.00 | 0.16 | 0.16 | 93 | 1014.5 |
| 20260505191402 | 57 | 185 | 0.0 | 0.0 | 0.00 | 0.16 | 0.16 | 93 | 1014.2 |
| 20260505190902 | 57 | 160 | 0.0 | 0.0 | 0.00 | 0.16 | 0.16 | 93 | 1014.3 |
| 20260505190402 | 58 | 156 | 0.0 | 0.0 | 0.00 | 0.16 | 0.16 | 93 | 1014.2 |
| 20260505185902 | 58 | 177 | 0.0 | 0.0 | 0.00 | 0.16 | 0.16 | 92 | 1014.4 |
| 20260505184902 | 58 | 158 | 0.0 | 1.0 | 0.00 | 0.16 | 0.16 | 92 | 1014.4 |
| 20260505184402 | 57 | 256 | 0.0 | 1.0 | 0.00 | 0.16 | 0.16 | 92 | 1014.5 |
| 20260505183902 | 58 | 247 | 0.0 | 1.0 | 0.00 | 0.16 | 0.16 | 92 | 1014.5 |
| 20260505183402 | 58 | 214 | 0.0 | 1.0 | 0.00 | 0.16 | 0.16 | 92 | 1014.3 |
| 20260505182902 | 58 | 190 | 0.0 | 1.0 | 0.00 | 0.16 | 0.16 | 92 | 1014.2 |
| 20260505182402 | 58 | 250 | 0.0 | 1.0 | 0.00 | 0.16 | 0.16 | 92 | 1014.2 |
| 20260505181902 | 58 | 227 | 0.0 | 1.0 | 0.00 | 0.16 | 0.16 | 92 | 1014.2 |
| 20260505181403 | 58 | 81 | 0.0 | 1.0 | 0.00 | 0.16 | 0.16 | 92 | 1014.1 |
| 20260505180902 | 58 | 233 | 0.0 | 0.0 | 0.00 | 0.16 | 0.16 | 92 | 1014.0 |
| 20260505180403 | 58 | 217 | 0.0 | 1.0 | 0.00 | 0.16 | 0.16 | 92 | 1013.9 |
| 20260505175403 | 58 | 250 | 0.0 | 1.0 | 0.00 | 0.16 | 0.16 | 92 | 1013.9 |
| 20260505174902 | 58 | 106 | 0.0 | 0.0 | 0.00 | 0.16 | 0.16 | 93 | 1013.9 |
| 20260505173904 | 58 | 83 | 0.0 | 1.0 | 0.00 | 0.16 | 0.16 | 92 | 1013.9 |
| 20260505172903 | 58 | 212 | 0.0 | 1.0 | 0.00 | 0.16 | 0.16 | 92 | 1013.9 |
| 20260505172402 | 59 | 235 | 0.0 | 0.0 | 0.00 | 0.16 | 0.16 | 92 | 1013.9 |
| 20260505171901 | 59 | 167 | 0.0 | 0.0 | 0.00 | 0.16 | 0.16 | 91 | 1013.9 |
| 20260505170904 | 59 | 131 | 0.0 | 0.0 | 0.00 | 0.16 | 0.16 | 90 | 1013.9 |
| 20260505170403 | 58 | 61 | 0.0 | 0.0 | 0.01 | 0.16 | 0.16 | 90 | 1013.9 |
| 20260505165901 | 58 | 67 | 0.0 | 0.0 | 0.01 | 0.16 | 0.16 | 90 | 1013.9 |
| 20260505164902 | 58 | 97 | 0.0 | 0.0 | 0.02 | 0.16 | 0.16 | 91 | 1014.2 |
| 20260505164402 | 58 | 155 | 0.0 | 1.0 | 0.02 | 0.16 | 0.16 | 91 | 1014.0 |
| 20260505163903 | 58 | 127 | 0.0 | 1.0 | 0.02 | 0.16 | 0.16 | 90 | 1014.2 |
| 20260505163402 | 58 | 196 | 0.0 | 1.0 | 0.03 | 0.16 | 0.16 | 90 | 1014.2 |
| 20260505162902 | 58 | 236 | 0.0 | 0.0 | 0.03 | 0.16 | 0.16 | 90 | 1014.2 |
| 20260505161902 | 58 | 202 | 0.0 | 1.0 | 0.03 | 0.16 | 0.16 | 90 | 1014.3 |
| 20260505161402 | 58 | 220 | 0.0 | 1.0 | 0.03 | 0.16 | 0.16 | 90 | 1014.5 |
| 20260505160903 | 58 | 252 | 0.0 | 2.0 | 0.03 | 0.16 | 0.16 | 90 | 1014.5 |
| 20260505160404 | 58 | 258 | 0.0 | 2.0 | 0.02 | 0.15 | 0.15 | 90 | 1014.6 |
| 20260505152902 | 59 | 256 | 1.0 | 2.0 | 0.00 | 0.13 | 0.13 | 87 | 1014.2 |
| 20260505150903 | 60 | 245 | 1.0 | 3.0 | 0.00 | 0.13 | 0.13 | 86 | 1014.2 |
| 20260505150402 | 60 | 257 | 0.0 | 2.0 | 0.00 | 0.13 | 0.13 | 86 | 1014.2 |
| 20260505140402 | 60 | 247 | 0.0 | 2.0 | 0.00 | 0.13 | 0.13 | 84 | 1014.4 |
| 20260505124902 | 60 | 28 | 0.0 | 1.0 | 0.00 | 0.13 | 0.13 | 85 | 1015.2 |
| 20260505124402 | 59 | 248 | 1.0 | 1.0 | 0.00 | 0.13 | 0.13 | 84 | 1015.1 |
| 20260505123902 | 60 | 255 | 1.0 | 2.0 | 0.00 | 0.13 | 0.13 | 87 | 1015.2 |
| 20260505123403 | 59 | 255 | 1.0 | 2.0 | 0.01 | 0.13 | 0.13 | 88 | 1015.2 |
| 20260505122902 | 60 | 261 | 1.0 | 2.0 | 0.01 | 0.13 | 0.13 | 87 | 1015.2 |
| 20260505122404 | 60 | 256 | 0.0 | 2.0 | 0.01 | 0.13 | 0.13 | 86 | 1015.6 |
| 20260505121902 | 60 | 257 | 1.0 | 2.0 | 0.01 | 0.13 | 0.13 | 84 | 1015.4 |
| 20260505121402 | 60 | 300 | 0.0 | 1.0 | 0.01 | 0.13 | 0.13 | 86 | 1015.2 |
| 20260505120403 | 59 | 260 | 0.0 | 1.0 | 0.01 | 0.13 | 0.13 | 83 | 1015.2 |
| 20260505114902 | 59 | 30 | 0.0 | 2.0 | 0.02 | 0.13 | 0.13 | 82 | 1015.2 |
| 20260505114403 | 59 | 245 | 0.0 | 2.0 | 0.02 | 0.13 | 0.13 | 81 | 1015.2 |
| 20260505113402 | 60 | 248 | 0.0 | 1.0 | 0.01 | 0.12 | 0.12 | 82 | 1015.4 |
| 20260505112902 | 60 | 71 | 0.0 | 1.0 | 0.01 | 0.12 | 0.12 | 82 | 1015.4 |
| 20260505112402 | 60 | 74 | 0.0 | 1.0 | 0.01 | 0.12 | 0.12 | 81 | 1015.2 |
| 20260505111903 | 59 | 247 | 0.0 | 1.0 | 0.02 | 0.12 | 0.12 | 82 | 1015.2 |
| 20260505111402 | 59 | 249 | 0.0 | 2.0 | 0.03 | 0.12 | 0.12 | 86 | 1015.2 |
| 20260505110902 | 59 | 252 | 0.0 | 2.0 | 0.03 | 0.12 | 0.12 | 87 | 1015.6 |
| 20260505110403 | 59 | 250 | 1.0 | 2.0 | 0.04 | 0.12 | 0.12 | 86 | 1015.2 |
| 20260505101902 | 59 | 71 | 0.0 | 0.0 | 0.05 | 0.10 | 0.10 | 88 | 1015.8 |
| 20260505101403 | 59 | 97 | 0.0 | 1.0 | 0.04 | 0.09 | 0.09 | 88 | 1015.8 |
| 20260505100403 | 59 | 43 | 0.0 | 1.0 | 0.03 | 0.08 | 0.08 | 88 | 1015.7 |
| 20260505095402 | 58 | 84 | 0.0 | 2.0 | 0.02 | 0.07 | 0.07 | 88 | 1015.6 |
| 20260505094905 | 58 | 67 | 0.0 | 2.0 | 0.02 | 0.06 | 0.06 | 87 | 1015.6 |
| 20260505093903 | 59 | 146 | 0.0 | 1.0 | 0.03 | 0.06 | 0.06 | 86 | 1015.4 |
| 20260505093403 | 59 | 247 | 1.0 | 1.0 | 0.03 | 0.06 | 0.06 | 87 | 1015.4 |
| 20260505092903 | 58 | 101 | 0.0 | 1.0 | 0.02 | 0.05 | 0.05 | 85 | 1015.6 |
| 20260505092403 | 59 | 77 | 0.0 | 1.0 | 0.02 | 0.05 | 0.05 | 86 | 1015.6 |
| 20260505091902 | 59 | 79 | 0.0 | 0.0 | 0.03 | 0.05 | 0.05 | 86 | 1015.6 |
| 20260505091404 | 59 | 114 | 0.0 | 0.0 | 0.03 | 0.05 | 0.05 | 87 | 1015.6 |
| 20260505090903 | 58 | 121 | 0.0 | 1.0 | 0.04 | 0.05 | 0.05 | 87 | 1015.2 |
| 20260505085902 | 58 | 76 | 0.0 | 1.0 | 0.04 | 0.05 | 0.05 | 88 | 1015.4 |
| 20260505085403 | 58 | 94 | 0.0 | 1.0 | 0.04 | 0.05 | 0.05 | 88 | 1015.2 |
| 20260505084903 | 58 | 236 | 1.0 | 1.0 | 0.03 | 0.04 | 0.04 | 87 | 1015.2 |
| 20260505084404 | 58 | 108 | 0.0 | 2.0 | 0.03 | 0.04 | 0.04 | 86 | 1015.3 |
| 20260505083902 | 57 | 115 | 0.0 | 2.0 | 0.02 | 0.03 | 0.03 | 86 | 1015.5 |
| 20260505083403 | 58 | 126 | 1.0 | 3.0 | 0.02 | 0.03 | 0.03 | 88 | 1015.3 |
| 20260505082905 | 57 | 68 | 1.0 | 3.0 | 0.02 | 0.03 | 0.03 | 87 | 1015.5 |
| 20260505082404 | 58 | 62 | 2.0 | 3.0 | 0.03 | 0.03 | 0.03 | 85 | 1015.4 |
| 20260505081403 | 58 | 62 | 1.0 | 2.0 | 0.02 | 0.02 | 0.02 | 86 | 1015.2 |
| 20260505080902 | 58 | 252 | 1.0 | 1.0 | 0.01 | 0.01 | 0.01 | 82 | 1015.2 |
| 20260505080403 | 58 | 206 | 0.0 | 1.0 | 0.01 | 0.01 | 0.01 | 86 | 1015.3 |
| 20260505075904 | 58 | 192 | 1.0 | 1.0 | 0.01 | 0.01 | 0.01 | 85 | 1015.6 |
| 20260505075402 | 58 | 105 | 0.0 | 1.0 | 0.01 | 0.01 | 0.01 | 84 | 1015.2 |
| 20260505074402 | 58 | 176 | 0.0 | 1.0 | 0.01 | 0.01 | 0.01 | 83 | 1015.2 |
| 20260505073903 | 58 | 176 | 0.0 | 2.0 | 0.01 | 0.01 | 0.01 | 82 | 1015.2 |
| 20260505073403 | 58 | 140 | 0.0 | 2.0 | 0.01 | 0.01 | 0.01 | 82 | 1015.2 |
| 20260505072902 | 59 | 276 | 1.0 | 1.0 | 0.01 | 0.01 | 0.01 | 81 | 1015.1 |
| 20260505072403 | 59 | 76 | 0.0 | 1.0 | 0.00 | 0.00 | 0.00 | 79 | 1015.2 |
| 20260505071902 | 59 | 220 | 0.0 | 1.0 | 0.00 | 0.00 | 0.00 | 78 | 1014.9 |
| 20260505071403 | 60 | 183 | 0.0 | 1.0 | 0.00 | 0.00 | 0.00 | 74 | 1014.9 |
| 20260505065903 | 61 | 59 | 0.0 | 1.0 | 0.00 | 0.00 | 0.00 | 64 | 1014.6 |